Location: Maccacari
(45.1333°N, 11.1333°E)
Time: 07:57:09
(UTC+00:00)

Lacrosse 5 rocket - Pass Details

Date: 18 September 2020
Orbit: 460 x 636 km, 57.0° (Epoch: 29 October)

Event Time Altitude Azimuth Distance (km) Brightness Sun altitude
Rises 19:47:37 0° 295° (WNW) 2,799 6.3 -25.6°
Reaches altitude 10° 19:50:29 10° 315° (NW) 1,934 5.1 -26.0°
Maximum altitude 19:53:31 18° 358° (N) 1,521 3.9 -26.4°
Enters shadow 19:55:09 15° 25° (NNE) 1,673 3.8 -26.7°
